TimeEST,TemperatureF,Dew PointF,Humidity,Sea Level PressureIn,VisibilityMPH,Wind Direction,Wind SpeedMPH,Gust SpeedMPH,PrecipitationIn,Events,Conditions,WindDirDegrees,DateUTC
12:51 AM,41.0,37.9,89,30.29,-9999.0,North,4.6,-,0.05,Rain,Rain,360,2013-01-15 05:51:00
1:51 AM,41.0,37.9,89,30.26,-9999.0,NE,5.8,-,0.09,Rain,Light Rain,40,2013-01-15 06:51:00
2:46 AM,41.0,39.2,93,30.24,-9999.0,ENE,5.8,-,N/A,Rain,Rain,60,2013-01-15 07:46:00
2:51 AM,41.0,39.0,93,30.23,-9999.0,East,6.9,-,0.04,Rain,Rain,80,2013-01-15 07:51:00
3:37 AM,41.0,37.4,87,30.26,-9999.0,NNE,6.9,-,0.01,Rain,Light Rain,20,2013-01-15 08:37:00
3:51 AM,39.2,37.4,93,30.25,-9999.0,NE,9.2,-,N/A,Rain,Light Rain,40,2013-01-15 08:51:00
4:51 AM,39.9,37.0,89,30.27,-9999.0,NE,6.9,-,0.00,,Overcast,40,2013-01-15 09:51:00
5:10 AM,39.2,35.6,87,30.27,-9999.0,NE,9.2,-,N/A,,Overcast,50,2013-01-15 10:10:00
5:26 AM,39.2,35.6,87,30.26,-9999.0,East,8.1,-,N/A,,Overcast,90,2013-01-15 10:26:00
5:51 AM,39.9,36.0,86,30.27,-9999.0,NNE,6.9,-,N/A,,Overcast,30,2013-01-15 10:51:00
6:26 AM,39.2,35.6,87,30.28,-9999.0,NE,8.1,-,N/A,,Overcast,40,2013-01-15 11:26:00
6:51 AM,39.0,36.0,89,30.29,10.0,NNE,5.8,-,N/A,,Overcast,20,2013-01-15 11:51:00
7:11 AM,39.2,35.6,87,30.30,10.0,North,5.8,-,N/A,,Overcast,360,2013-01-15 12:11:00
7:36 AM,39.2,35.6,87,30.30,10.0,North,5.8,-,N/A,,Overcast,10,2013-01-15 12:36:00
7:51 AM,39.9,35.1,83,30.31,10.0,North,6.9,-,N/A,,Overcast,360,2013-01-15 12:51:00
8:51 AM,39.0,33.1,79,30.35,10.0,North,10.4,-,N/A,,Overcast,360,2013-01-15 13:51:00
9:51 AM,39.9,32.0,73,30.35,10.0,North,10.4,-,N/A,,Overcast,10,2013-01-15 14:51:00
10:51 AM,39.9,30.0,68,30.36,10.0,North,6.9,-,N/A,,Overcast,360,2013-01-15 15:51:00
11:51 AM,39.9,30.0,68,30.31,10.0,NNE,9.2,-,N/A,,Overcast,30,2013-01-15 16:51:00
12:51 PM,39.9,30.0,68,30.30,10.0,NNE,5.8,-,N/A,,Overcast,20,2013-01-15 17:51:00
1:51 PM,41.0,30.2,65,30.28,10.0,North,5.8,-,N/A,,Overcast,360,2013-01-15 18:51:00
2:51 PM,41.0,30.0,65,30.27,10.0,NE,4.6,-,N/A,,Overcast,40,2013-01-15 19:51:00
3:51 PM,41.0,30.2,65,30.28,-9999.0,NNE,4.6,-,N/A,,Overcast,30,2013-01-15 20:51:00
4:51 PM,41.0,30.0,65,30.29,-9999.0,North,5.8,-,N/A,,Overcast,360,2013-01-15 21:51:00
5:51 PM,39.2,30.2,70,30.25,-9999.0,NE,6.9,-,N/A,,Overcast,50,2013-01-15 22:51:00
6:51 PM,39.9,28.9,65,30.29,10.0,NNE,10.4,-,N/A,,Overcast,20,2013-01-15 23:51:00
7:51 PM,39.0,28.9,67,30.29,-9999.0,North,9.2,-,N/A,,Overcast,360,2013-01-16 00:51:00
8:51 PM,39.0,30.0,70,30.25,-9999.0,NE,6.9,-,0.00,Rain,Light Rain,40,2013-01-16 01:51:00
9:51 PM,37.0,32.0,82,30.24,-9999.0,NE,6.9,-,0.02,Rain,Rain,50,2013-01-16 02:51:00
10:29 PM,37.4,33.8,87,30.24,7.0,North,3.5,-,0.05,Rain,Rain,360,2013-01-16 03:29:00
10:46 PM,35.6,33.8,93,30.23,7.0,NNE,4.6,-,0.09,Rain,Rain,20,2013-01-16 03:46:00
10:51 PM,36.0,33.1,89,30.22,7.0,NNE,3.5,-,0.09,Rain,Light Rain,30,2013-01-16 03:51:00
11:37 PM,35.6,33.8,93,30.21,-9999.0,North,4.6,-,0.08,Rain,Rain,10,2013-01-16 04:37:00
11:47 PM,35.6,33.8,93,30.20,-9999.0,NNE,5.8,-,0.10,Rain,Rain,20,2013-01-16 04:47:00
11:51 PM,36.0,34.0,93,30.20,-9999.0,NE,4.6,-,0.11,Rain,Rain,40,2013-01-16 04:51:00